STARLINK-1217, 45226

Orbit data source: Space-Track

STARLINK-1217, 45226 is a payload satellite owned by SpaceX/Seattle (US) in LEO that was launched on Mon, 17 Feb 2020 UTC via an FALCON 9 launch vehicle from the Air Force Eastern Test Range (AFETR). Payload-class satellites include a variety of spacecraft equipped with specific instruments for various scientific and technological missions. These include communications satellites like Starlink; space stations such as the ISS; scientific satellites like the Hubble; Earth observation satellites from companies like Planet Labs, Umbra, and HawkEye 360; GPS; miniature CubeSats for education and research; and military/defense satellites.

Not visible in the next 10 days
Identifier
45226, 2020-012BA
Orbit
LEO
Country
Flag of USUS
Related business
Manufacturer
SpaceX/Seattle
Mission
Partially operational Commercial Communications
Bus & Motor
STARLINK, Unknown motor
Mass
260 kg wet, ~248 kg dry
Launch date (UTC)
2020-02-17 (6 years ago)
Launch vehicle
FALCON 9
Launch site
Air Force Eastern Test Range (AFETR)
Object type
Payload
Rocket body
Debris
Shape & HBR
Box + 1 Pan, 10.1 m
Radar Cross Section
13.562 m², Large (>1 m²)

Expand to show TLE details & history
Last TLE update: 4 hours ago

TLE from 4 hours ago
0 STARLINK-1217
1 45226U 20012BA  25288.83832078  .01129031  88435-3  82263-3 0  9990
2 45226  53.0344 231.3463 0002861 193.9745 166.1212 16.15298971314395
Epoch: 2025-10-15T20:07Z
TLE epoch observation values (Epoch: 2025-10-15T20:07:10.915Z)
Latitude
-0.00003°
Longitude
-95.05585°
Altitude
235.101 km
Speed
7.766 km/s
True Right ascension
15h 25m 23s
True Declination
0° 00' 00"
Sunlit
Object was in daylight at epoch
Visualization orbit readout
Latitude
Unknown
Longitude
Unknown
Altitude
Unknown
Speed
Unknown
Apparent Right ascension
Unknown
Apparent Declination
Unknown
Sunlit
N/A
Visualization observer readout
Local Sidereal Time
19:05:25
Azimuth
Unknown
Elevation
Unknown
Doppler factor
Unknown
Orbital elements
Apogee altitude
234.525 km
Perigee altitude
230.742 km
Semi-major axis
6,610.77 km
Eccentricity
0.00029
Inclination
53.0344°
RAAN
231.3463°
Arg. of periapsis
193.9745°
True anomaly
166.12906°
Mean anomaly
166.1212°
Eccentric anomaly
166.12513°
Mean motion
4.03799 °/min
Orbital period
89.15 mins
BSTAR
0.00082263
Loading maneuver chart data...
Computing Atmospheric mass density...
Loading historical data...
Loading historical data...
Loading historical data...
Loading historical data...
Loading historical data...
Loading historical data...
Loading historical data...

Documentation

Showing up to 5 results
|